,,Stat5,,Stat1,,Stat2,,Stat3,,Stat4,,Wind1,,Wind1,
time,status,PA1M_AVG,status,PR1M_SUM,status,RH1M_AVG,status,SR1M_AVG,status,TA1M_AVG,status,W1dAve1m,status,W1sAve1m,
2002-03-24, 00:00:01,VALID,917.254,VALID,0,VALID,92.9467,VALID,-0.101885,VALID,19.7971,VALID,13,VALID,0,
2002-03-24, 00:01:01,VALID,917.241,VALID,0,VALID,92.8462,VALID,-0.101885,VALID,19.8103,VALID,13,VALID,0,
2002-03-24, 00:02:01,VALID,917.205,VALID,0,VALID,92.9085,VALID,-0.0849042,VALID,19.8292,VALID,13,VALID,0,
2002-03-24, 00:03:01,VALID,917.185,VALID,0,VALID,92.6542,VALID,-0.0849042,VALID,19.855,VALID,8,VALID,0.00986842,
2002-03-24, 00:04:01,VALID,917.174,VALID,0,VALID,92.4558,VALID,-0.0849042,VALID,19.8712,VALID,7,VALID,0,
2002-03-24, 00:05:01,VALID,917.163,VALID,0,VALID,92.508,VALID,-0.0849042,VALID,19.8806,VALID,7,VALID,0,
2002-03-24, 00:06:00,VALID,917.129,VALID,0,VALID,92.5105,VALID,-0.101885,VALID,19.8906,VALID,7,VALID,0,
2002-03-24, 00:07:00,VALID,917.118,VALID,0,VALID,92.5499,VALID,-0.0849042,VALID,19.8873,VALID,7,VALID,0,
2002-03-24, 00:08:00,VALID,917.104,VALID,0,VALID,92.5283,VALID,-0.101885,VALID,19.8968,VALID,7,VALID,0,
2002-03-24, 00:09:00,VALID,917.085,VALID,0,VALID,92.3401,VALID,-0.118866,VALID,19.8973,VALID,7,VALID,0,
2002-03-24, 00:10:00,VALID,917.062,VALID,0,VALID,92.2549,VALID,-0.101885,VALID,19.9201,VALID,6,VALID,0,
2002-03-24, 00:11:00,VALID,917.053,VALID,0,VALID,92.1087,VALID,0.0509425,VALID,19.9047,VALID,6,VALID,0,
2002-03-24, 00:12:00,VALID,917.025,VALID,0,VALID,92.0247,VALID,0.0339617,VALID,19.9179,VALID,6,VALID,0,
2002-03-24, 00:13:00,VALID,917.009,VALID,0,VALID,92.082,VALID,0.0679233,VALID,19.9211,VALID,6,VALID,0,
2002-03-24, 00:14:00,VALID,917.01,VALID,0,VALID,92.1405,VALID,0.0169808,VALID,19.934,VALID,6,VALID,0,
2002-03-24, 00:15:00,VALID,916.998,VALID,0,VALID,92.1201,VALID,0.0169808,VALID,19.9142,VALID,6,VALID,0,
2002-03-24, 00:16:00,VALID,916.992,VALID,0,VALID,92.1278,VALID,0.0509425,VALID,19.9114,VALID,6,VALID,0,
2002-03-24, 00:17:00,VALID,916.973,VALID,0,VALID,91.9128,VALID,0.0509425,VALID,19.8988,VALID,6,VALID,0,
2002-03-24, 00:18:00,VALID,916.969,VALID,0,VALID,91.7552,VALID,0.0509425,VALID,19.8694,VALID,68,VALID,0,
2002-03-24, 00:19:00,VALID,916.957,VALID,0,VALID,91.8696,VALID,0.0679233,VALID,19.8404,VALID,119,VALID,0,
2002-03-24, 00:20:00,VALID,916.947,VALID,0,VALID,92.0235,VALID,0.0339617,VALID,19.8309,VALID,119,VALID,0,
2002-03-24, 00:21:00,VALID,916.938,VALID,0,VALID,92.1964,VALID,0.0509425,VALID,19.8051,VALID,119,VALID,0,
2002-03-24, 00:22:00,VALID,916.916,VALID,0,VALID,92.391,VALID,0.0509425,VALID,19.7561,VALID,119,VALID,0,
2002-03-24, 00:23:00,VALID,916.887,VALID,0,VALID,92.4736,VALID,0.0849042,VALID,19.7238,VALID,119,VALID,0,
2002-03-24, 00:24:00,VALID,916.876,VALID,0,VALID,92.508,VALID,0.0509425,VALID,19.6818,VALID,118,VALID,0,
2002-03-24, 00:25:00,VALID,916.852,VALID,0,VALID,92.6796,VALID,0.0169808,VALID,19.6361,VALID,118,VALID,0,
2002-03-24, 00:26:00,VALID,916.844,VALID,0,VALID,92.6809,VALID,0.0679233,VALID,19.5951,VALID,118,VALID,0,
2002-03-24, 00:27:00,VALID,916.842,VALID,0,VALID,92.9975,VALID,0.0849042,VALID,19.5233,VALID,68,VALID,0,
2002-03-24, 00:28:00,VALID,916.846,VALID,0,VALID,93.0535,VALID,0.0509425,VALID,19.4754,VALID,26,VALID,0,
2002-03-24, 00:29:00,VALID,916.857,VALID,0,VALID,93.2302,VALID,0.0339617,VALID,19.411,VALID,5,VALID,0.424554,
2002-03-24, 00:30:00,VALID,916.848,VALID,0,VALID,93.599,VALID,0.0509425,VALID,19.3658,VALID,359,VALID,0.694696,
2002-03-24, 00:31:00,VALID,916.839,VALID,0,VALID,93.6371,VALID,0.0679233,VALID,19.3653,VALID,17,VALID,0.837946,
2002-03-24, 00:32:00,VALID,916.819,VALID,0,VALID,93.6867,VALID,0.0169808,VALID,19.3496,VALID,10,VALID,0.946398,
2002-03-24, 00:33:00,VALID,916.806,VALID,0,VALID,93.9182,VALID,0.0339617,VALID,19.3819,VALID,3,VALID,0.867405,
2002-03-24, 00:34:00,VALID,916.778,VALID,0,VALID,93.7287,VALID,0.0679233,VALID,19.4309,VALID,8,VALID,0.699002,
2002-03-24, 00:35:00,VALID,916.761,VALID,0,VALID,93.4655,VALID,0.0509425,VALID,19.4334,VALID,8,VALID,0.490954,
2002-03-24, 00:36:00,VALID,916.727,VALID,0,VALID,93.3841,VALID,0.0339617,VALID,19.4302,VALID,8,VALID,0.377821,
2002-03-24, 00:37:00,VALID,916.712,VALID,0,VALID,93.2328,VALID,0,VALID,19.4212,VALID,8,VALID,0.0655382,
2002-03-24, 00:38:00,VALID,916.69,VALID,0,VALID,93.4032,VALID,0.0169808,VALID,19.4048,VALID,8,VALID,0.0499589,
2002-03-24, 00:39:00,VALID,916.655,VALID,0,VALID,93.3294,VALID,0.0339617,VALID,19.3949,VALID,8,VALID,0.0116071,
2002-03-24, 00:40:00,VALID,916.628,VALID,0,VALID,93.2735,VALID,0.0339617,VALID,19.3727,VALID,3,VALID,0.183277,
2002-03-24, 00:41:00,VALID,916.582,VALID,0,VALID,93.7605,VALID,-0.0849042,VALID,19.3603,VALID,333,VALID,0.091682,
2002-03-24, 00:42:00,VALID,916.547,VALID,0,VALID,93.7936,VALID,-0.0679233,VALID,19.3804,VALID,333,VALID,0,
2002-03-24, 00:43:00,VALID,916.524,VALID,0,VALID,93.6906,VALID,-0.0849042,VALID,19.3479,VALID,333,VALID,0,
2002-03-24, 00:44:00,VALID,916.496,VALID,0,VALID,93.7694,VALID,-0.0509425,VALID,19.3225,VALID,333,VALID,0,
2002-03-24, 00:45:00,VALID,916.488,VALID,0,VALID,93.8775,VALID,-0.0509425,VALID,19.3225,VALID,333,VALID,0,
2002-03-24, 00:46:00,VALID,916.479,VALID,0,VALID,93.9678,VALID,-0.0509425,VALID,19.3191,VALID,333,VALID,0.0341518,
2002-03-24, 00:47:00,VALID,916.477,VALID,0,VALID,94.1191,VALID,-0.0679233,VALID,19.3059,VALID,40,VALID,0.124132,
2002-03-24, 00:48:00,VALID,916.487,VALID,0,VALID,94.3963,VALID,-0.0849042,VALID,19.3126,VALID,86,VALID,0.361979,
2002-03-24, 00:49:00,VALID,916.489,VALID,0,VALID,94.4917,VALID,-0.0339617,VALID,19.3124,VALID,74,VALID,0.407986,
2002-03-24, 00:50:00,VALID,916.489,VALID,0,VALID,94.5819,VALID,-0.101885,VALID,19.3255,VALID,70,VALID,0.306332,
2002-03-24, 00:51:00,VALID,916.499,VALID,0,VALID,94.3047,VALID,-0.101885,VALID,19.3156,VALID,67,VALID,0.301866,
2002-03-24, 00:52:00,VALID,916.479,VALID,0,VALID,93.8762,VALID,-0.0509425,VALID,19.251,VALID,41,VALID,0.519531,
2002-03-24, 00:53:00,VALID,916.459,VALID,0,VALID,93.7694,VALID,-0.101885,VALID,19.171,VALID,31,VALID,0.624589,
2002-03-24, 00:54:00,VALID,916.436,VALID,0,VALID,94.1178,VALID,-0.0679233,VALID,19.0994,VALID,20,VALID,0.731473,
2002-03-24, 00:55:00,VALID,916.407,VALID,0,VALID,94.9138,VALID,-0.0849042,VALID,19.1091,VALID,10,VALID,0.824535,
2002-03-24, 00:56:00,VALID,916.391,VALID,0,VALID,94.8566,VALID,0,VALID,19.0922,VALID,6,VALID,0.731847,
2002-03-24, 00:57:00,VALID,916.376,VALID,0,VALID,95.2038,VALID,0,VALID,19.1024,VALID,1,VALID,0.574324,
2002-03-24, 00:58:00,VALID,916.361,VALID,0,VALID,95.3386,VALID,0,VALID,19.1412,VALID,4,VALID,0.660457,
2002-03-24, 00:59:00,VALID,916.361,VALID,0,VALID,95.1987,VALID,-0.0169808,VALID,19.1769,VALID,3,VALID,0.743304,
2002-03-24, 01:00:00,VALID,916.345,VALID,0,VALID,94.9304,VALID,0,VALID,19.1928,VALID,360,VALID,0.591488,
2002-03-24, 01:01:00,VALID,916.351,VALID,0,VALID,94.821,VALID,0,VALID,19.2219,VALID,4,VALID,0.848661,
2002-03-24, 01:02:00,VALID,916.349,VALID,0,VALID,94.5349,VALID,0,VALID,19.2706,VALID,6,VALID,0.846137,
2002-03-24, 01:03:00,VALID,916.34,VALID,0,VALID,94.5222,VALID,0,VALID,19.2897,VALID,358,VALID,0.800564,
2002-03-24, 01:04:00,VALID,916.336,VALID,0,VALID,94.5476,VALID,0,VALID,19.3643,VALID,1,VALID,1.05816,
2002-03-24, 01:05:00,VALID,916.336,VALID,0,VALID,94.1013,VALID,0.0169808,VALID,19.4028,VALID,4,VALID,0.91653,
2002-03-24, 01:06:00,VALID,916.314,VALID,0,VALID,94.0085,VALID,0,VALID,19.4122,VALID,11,VALID,1.09939,
2002-03-24, 01:07:00,VALID,916.304,VALID,0,VALID,93.8355,VALID,0,VALID,19.4286,VALID,2,VALID,0.884766,
2002-03-24, 01:08:00,VALID,916.308,VALID,0,VALID,94.1051,VALID,0,VALID,19.4411,VALID,354,VALID,0.871916,
2002-03-24, 01:09:00,VALID,916.3,VALID,0,VALID,94.0733,VALID,0,VALID,19.4868,VALID,346,VALID,0.762946,
2002-03-24, 01:10:00,VALID,916.296,VALID,0,VALID,93.8648,VALID,0.0169808,VALID,19.5064,VALID,273,VALID,0.579392,
2002-03-24, 01:11:00,VALID,916.281,VALID,0,VALID,93.7567,VALID,0,VALID,19.5062,VALID,281,VALID,0.212086,
2002-03-24, 01:12:00,VALID,916.26,VALID,0,VALID,93.4502,VALID,0,VALID,19.4935,VALID,294,VALID,0.0629223,
2002-03-24, 01:13:00,VALID,916.253,VALID,0,VALID,93.4261,VALID,0,VALID,19.4644,VALID,350,VALID,0.486378,
2002-03-24, 01:14:00,VALID,916.217,VALID,0,VALID,93.5074,VALID,0,VALID,19.4711,VALID,8,VALID,0.40692,
2002-03-24, 01:15:00,VALID,916.199,VALID,0,VALID,93.5049,VALID,-0.0169808,VALID,19.4609,VALID,2,VALID,0.608553,
2002-03-24, 01:16:00,VALID,916.175,VALID,0,VALID,93.3994,VALID,0,VALID,19.4776,VALID,16,VALID,0.754018,
2002-03-24, 01:17:00,VALID,916.156,VALID,0,VALID,93.2061,VALID,0,VALID,19.4612,VALID,9,VALID,0.801649,
2002-03-24, 01:18:00,VALID,916.131,VALID,0,VALID,93.3014,VALID,0,VALID,19.4739,VALID,11,VALID,1.05707,
2002-03-24, 01:19:00,VALID,916.11,VALID,0,VALID,93.2785,VALID,0.0169808,VALID,19.4995,VALID,2,VALID,1.07118,
2002-03-24, 01:20:00,VALID,916.098,VALID,0,VALID,93.3383,VALID,0,VALID,19.5447,VALID,9,VALID,1.03947,
2002-03-24, 01:21:00,VALID,916.095,VALID,0,VALID,92.8755,VALID,0.0169808,VALID,19.5899,VALID,12,VALID,1.01758,
2002-03-24, 01:22:00,VALID,916.079,VALID,0,VALID,92.424,VALID,0.0339617,VALID,19.6128,VALID,25,VALID,0.87934,
2002-03-24, 01:23:00,VALID,916.067,VALID,0,VALID,92.1888,VALID,0,VALID,19.6063,VALID,28,VALID,0.995888,
2002-03-24, 01:24:00,VALID,916.058,VALID,0,VALID,92.2193,VALID,0,VALID,19.5931,VALID,44,VALID,0.837946,
2002-03-24, 01:25:00,VALID,916.056,VALID,0,VALID,92.3236,VALID,0,VALID,19.5805,VALID,37,VALID,0.944046,
2002-03-24, 01:26:00,VALID,916.051,VALID,0,VALID,92.3465,VALID,0,VALID,19.5899,VALID,52,VALID,0.653263,
2002-03-24, 01:27:00,VALID,916.047,VALID,0,VALID,92.3299,VALID,0,VALID,19.6192,VALID,49,VALID,0.394637,
2002-03-24, 01:28:00,VALID,916.067,VALID,0,VALID,91.9815,VALID,0,VALID,19.6321,VALID,76,VALID,0.241587,
2002-03-24, 01:29:00,VALID,916.059,VALID,0,VALID,91.8213,VALID,0,VALID,19.6128,VALID,151,VALID,0.622768,
2002-03-24, 01:30:00,VALID,916.042,VALID,0,VALID,92.0693,VALID,-0.0169808,VALID,19.5872,VALID,144,VALID,0.860197,
2002-03-24, 01:31:00,VALID,916.01,VALID,0,VALID,92.4482,VALID,0.0169808,VALID,19.5419,VALID,148,VALID,0.762054,
2002-03-24, 01:32:00,VALID,915.983,VALID,0,VALID,92.7826,VALID,0,VALID,19.5094,VALID,147,VALID,0.767578,
2002-03-24, 01:33:00,VALID,915.94,VALID,0,VALID,93.2887,VALID,0,VALID,19.4734,VALID,137,VALID,0.739149,
2002-03-24, 01:34:00,VALID,915.908,VALID,0,VALID,93.4477,VALID,0.0339617,VALID,19.448,VALID,133,VALID,0.480903,
2002-03-24, 01:35:00,VALID,915.887,VALID,0,VALID,93.7847,VALID,0,VALID,19.4256,VALID,134,VALID,0.31065,
2002-03-24, 01:36:00,VALID,915.847,VALID,0,VALID,93.9004,VALID,0,VALID,19.3933,VALID,128,VALID,0.47678,
2002-03-24, 01:37:00,VALID,915.836,VALID,0,VALID,93.9754,VALID,0,VALID,19.3481,VALID,127,VALID,0.449002,
2002-03-24, 01:38:00,VALID,915.798,VALID,0,VALID,94.2284,VALID,0,VALID,19.3061,VALID,123,VALID,0.4081,
2002-03-24, 01:39:00,VALID,915.79,VALID,0,VALID,94.5883,VALID,0.0169808,VALID,19.2706,VALID,96,VALID,0.6125,
2002-03-24, 01:40:00,VALID,915.768,VALID,0,VALID,94.6786,VALID,0,VALID,19.248,VALID,83,VALID,0.366976,
2002-03-24, 01:41:00,VALID,915.769,VALID,0,VALID,94.7816,VALID,0.0169808,VALID,19.1993,VALID,72,VALID,0.34329,
2002-03-24, 01:42:00,VALID,915.769,VALID,0,VALID,94.8744,VALID,0,VALID,19.1832,VALID,72,VALID,0.434333,
2002-03-24, 01:43:00,VALID,915.757,VALID,0,VALID,94.9698,VALID,0.0339617,VALID,19.164,VALID,72,VALID,0.438101,
2002-03-24, 01:44:00,VALID,915.749,VALID,0,VALID,95.144,VALID,0,VALID,19.1509,VALID,72,VALID,0.0966518,
2002-03-24, 01:45:00,VALID,915.736,VALID,0,VALID,95.2076,VALID,0,VALID,19.1352,VALID,72,VALID,0,
2002-03-24, 01:46:00,VALID,915.737,VALID,0,VALID,95.2686,VALID,0.0339617,VALID,19.1215,VALID,72,VALID,0,
2002-03-24, 01:47:00,VALID,915.735,VALID,0,VALID,95.3602,VALID,0.0169808,VALID,19.1317,VALID,72,VALID,0,
2002-03-24, 01:48:00,VALID,915.737,VALID,0,VALID,95.4072,VALID,0,VALID,19.1416,VALID,72,VALID,0,
2002-03-24, 01:49:00,VALID,915.722,VALID,0,VALID,95.3411,VALID,0.0169808,VALID,19.1608,VALID,72,VALID,0,
2002-03-24, 01:50:00,VALID,915.712,VALID,0,VALID,95.2101,VALID,0,VALID,19.167,VALID,72,VALID,0.000616776,
2002-03-24, 01:51:00,VALID,915.707,VALID,0,VALID,95.2483,VALID,0,VALID,19.1866,VALID,72,VALID,0.144748,
2002-03-24, 01:52:00,VALID,915.695,VALID,0,VALID,95.1707,VALID,0,VALID,19.2222,VALID,125,VALID,0.273872,
2002-03-24, 01:53:00,VALID,915.676,VALID,0,VALID,95.0588,VALID,0,VALID,19.2381,VALID,162,VALID,0.158306,
2002-03-24, 01:54:00,VALID,915.658,VALID,0,VALID,94.9825,VALID,0.0169808,VALID,19.287,VALID,162,VALID,0.308705,
2002-03-24, 01:55:00,VALID,915.639,VALID,0,VALID,94.7091,VALID,0.0169808,VALID,19.2932,VALID,161,VALID,0.4375,
2002-03-24, 01:56:00,VALID,915.614,VALID,0,VALID,94.5832,VALID,-0.0339617,VALID,19.2939,VALID,153,VALID,0.444623,
2002-03-24, 01:57:00,VALID,915.599,VALID,0,VALID,94.5324,VALID,-0.0169808,VALID,19.2872,VALID,152,VALID,0.522804,
2002-03-24, 01:58:00,VALID,915.58,VALID,0,VALID,94.6099,VALID,-0.0509425,VALID,19.2547,VALID,142,VALID,0.408253,
2002-03-24, 01:59:00,VALID,915.567,VALID,0,VALID,94.6621,VALID,-0.0679233,VALID,19.2388,VALID,138,VALID,0.531696,
2002-03-24, 02:00:00,VALID,915.535,VALID,0,VALID,94.8566,VALID,0,VALID,19.2194,VALID,146,VALID,0.601357,
2002-03-24, 02:01:00,VALID,915.514,VALID,0,VALID,95.0944,VALID,0.0169808,VALID,19.2132,VALID,151,VALID,0.523438,
2002-03-24, 02:02:00,VALID,915.493,VALID,0,VALID,95.3767,VALID,-0.0169808,VALID,19.21,VALID,147,VALID,0.268229,
2002-03-24, 02:03:00,VALID,915.462,VALID,0,VALID,95.3653,VALID,0,VALID,19.1866,VALID,147,VALID,0,
2002-03-24, 02:04:00,VALID,915.462,VALID,0,VALID,95.5306,VALID,0,VALID,19.1707,VALID,147,VALID,0.0611979,
2002-03-24, 02:05:00,VALID,915.451,VALID,0,VALID,95.7467,VALID,0,VALID,19.171,VALID,106,VALID,0.411595,
2002-03-24, 02:06:00,VALID,915.433,VALID,0,VALID,95.7493,VALID,-0.0339617,VALID,19.1481,VALID,92,VALID,0.39388,
2002-03-24, 02:07:00,VALID,915.413,VALID,0,VALID,95.9133,VALID,0,VALID,19.1223,VALID,87,VALID,0.589844,
2002-03-24, 02:08:00,VALID,915.4,VALID,0,VALID,96.2592,VALID,-0.0169808,VALID,19.0962,VALID,87,VALID,0.693051,
2002-03-24, 02:09:00,VALID,915.397,VALID,0,VALID,96.6102,VALID,-0.0169808,VALID,19.1128,VALID,87,VALID,0.755357,
2002-03-24, 02:10:00,VALID,915.383,VALID,0,VALID,96.4461,VALID,-0.0509425,VALID,19.0909,VALID,86,VALID,0.83277,
2002-03-24, 02:11:00,VALID,915.369,VALID,0,VALID,96.8187,VALID,0,VALID,19.0448,VALID,100,VALID,0.918888,
2002-03-24, 02:12:00,VALID,915.367,VALID,0,VALID,97.0743,VALID,0.0169808,VALID,19.0997,VALID,102,VALID,0.884502,
2002-03-24, 02:13:00,VALID,915.356,VALID,0,VALID,96.6089,VALID,0,VALID,19.093,VALID,90,VALID,0.898438,
2002-03-24, 02:14:00,VALID,915.34,VALID,0,VALID,96.3024,VALID,-0.0339617,VALID,19.0388,VALID,82,VALID,0.776116,
2002-03-24, 02:15:00,VALID,915.345,VALID,0,VALID,96.249,VALID,-0.0169808,VALID,18.9963,VALID,72,VALID,0.347451,
2002-03-24, 02:16:00,VALID,915.334,VALID,0,VALID,96.2872,VALID,-0.0509425,VALID,18.9707,VALID,69,VALID,0.369196,
2002-03-24, 02:17:00,VALID,915.32,VALID,0,VALID,96.3596,VALID,-0.0339617,VALID,18.9779,VALID,87,VALID,0.275174,
2002-03-24, 02:18:00,VALID,915.304,VALID,0,VALID,96.4105,VALID,-0.0509425,VALID,18.9573,VALID,87,VALID,0.277778,
2002-03-24, 02:19:00,VALID,915.305,VALID,0,VALID,96.5059,VALID,-0.0339617,VALID,18.9841,VALID,87,VALID,0.123915,
2002-03-24, 02:20:00,VALID,915.294,VALID,0,VALID,96.5021,VALID,-0.0169808,VALID,18.9901,VALID,87,VALID,0,
2002-03-24, 02:21:00,VALID,915.308,VALID,0,VALID,96.4385,VALID,-0.0339617,VALID,18.9938,VALID,87,VALID,0,
2002-03-24, 02:22:00,VALID,915.293,VALID,0,VALID,96.4003,VALID,-0.0169808,VALID,18.9933,VALID,87,VALID,0.0690104,
2002-03-24, 02:23:00,VALID,915.299,VALID,0,VALID,96.4131,VALID,-0.0339617,VALID,18.9806,VALID,90,VALID,0.373355,
2002-03-24, 02:24:00,VALID,915.299,VALID,0,VALID,96.6419,VALID,-0.0509425,VALID,19.0162,VALID,109,VALID,0.424554,
2002-03-24, 02:25:00,VALID,915.295,VALID,0,VALID,96.7081,VALID,-0.0679233,VALID,19.0385,VALID,109,VALID,0.482264,
2002-03-24, 02:26:00,VALID,915.283,VALID,0,VALID,96.6305,VALID,-0.0339617,VALID,19.0547,VALID,109,VALID,0.467601,
2002-03-24, 02:27:00,VALID,915.294,VALID,0,VALID,96.586,VALID,-0.0509425,VALID,19.0681,VALID,109,VALID,0.123733,
2002-03-24, 02:28:00,VALID,915.291,VALID,0,VALID,96.4906,VALID,-0.0339617,VALID,19.0678,VALID,109,VALID,0.00220353,
2002-03-24, 02:29:00,VALID,915.28,VALID,0,VALID,96.4359,VALID,-0.0339617,VALID,19.0512,VALID,109,VALID,0,
2002-03-24, 02:30:00,VALID,915.275,VALID,0,VALID,96.1486,VALID,-0.0169808,VALID,19.0062,VALID,109,VALID,0,
2002-03-24, 02:31:00,VALID,915.27,VALID,0,VALID,96.0328,VALID,-0.0169808,VALID,18.9682,VALID,109,VALID,0,
2002-03-24, 02:32:00,VALID,915.258,VALID,0,VALID,96.0087,VALID,-0.0339617,VALID,18.9416,VALID,109,VALID,0,
2002-03-24, 02:33:00,VALID,915.237,VALID,0,VALID,95.9527,VALID,-0.0509425,VALID,18.9292,VALID,109,VALID,0,
2002-03-24, 02:34:00,VALID,915.237,VALID,0,VALID,95.9909,VALID,-0.0339617,VALID,18.9066,VALID,104,VALID,0,
2002-03-24, 02:35:00,VALID,915.208,VALID,0,VALID,96.0634,VALID,0,VALID,18.8897,VALID,71,VALID,0,
2002-03-24, 02:36:00,VALID,915.221,VALID,0,VALID,96.1371,VALID,-0.0169808,VALID,18.8969,VALID,71,VALID,0,
2002-03-24, 02:37:00,VALID,915.219,VALID,0,VALID,96.0926,VALID,-0.0169808,VALID,18.8807,VALID,71,VALID,0,
2002-03-24, 02:38:00,VALID,915.228,VALID,0,VALID,96.2859,VALID,0,VALID,18.886,VALID,317,VALID,0.406867,
2002-03-24, 02:39:00,VALID,915.232,VALID,0,VALID,96.6,VALID,-0.0169808,VALID,18.9511,VALID,252,VALID,0.416964,
2002-03-24, 02:40:00,VALID,915.228,VALID,0,VALID,96.7297,VALID,-0.0339617,VALID,19,VALID,252,VALID,0.446791,
2002-03-24, 02:41:00,VALID,915.223,VALID,0,VALID,96.7538,VALID,-0.0169808,VALID,19.0353,VALID,252,VALID,0.325138,
2002-03-24, 02:42:00,VALID,915.222,VALID,0,VALID,96.6928,VALID,-0.0169808,VALID,19.0582,VALID,267,VALID,0.402449,
2002-03-24, 02:43:00,VALID,915.226,VALID,0,VALID,96.6801,VALID,0,VALID,19.0611,VALID,274,VALID,0.452724,
2002-03-24, 02:44:00,VALID,915.227,VALID,0,VALID,96.7119,VALID,-0.0169808,VALID,19.0748,VALID,273,VALID,0.412723,
2002-03-24, 02:45:00,VALID,915.23,VALID,0,VALID,96.7068,VALID,-0.0509425,VALID,19.0912,VALID,273,VALID,0.0941612,
2002-03-24, 02:46:00,VALID,915.225,VALID,0,VALID,96.6788,VALID,-0.0509425,VALID,19.0847,VALID,280,VALID,0.316295,
2002-03-24, 02:47:00,VALID,915.218,VALID,0,VALID,96.6776,VALID,-0.0169808,VALID,19.0748,VALID,277,VALID,0.256293,
2002-03-24, 02:48:00,VALID,915.229,VALID,0,VALID,96.6547,VALID,0,VALID,19.0616,VALID,275,VALID,0.0421007,
2002-03-24, 02:49:00,VALID,915.226,VALID,0,VALID,96.703,VALID,-0.0509425,VALID,19.0485,VALID,275,VALID,0,
2002-03-24, 02:50:00,VALID,915.213,VALID,0,VALID,96.7627,VALID,-0.0339617,VALID,19.0651,VALID,275,VALID,0,
2002-03-24, 02:51:00,VALID,915.206,VALID,0,VALID,96.7767,VALID,0,VALID,19.0556,VALID,275,VALID,0,
2002-03-24, 02:52:00,VALID,915.211,VALID,0,VALID,96.7907,VALID,0,VALID,19.0522,VALID,275,VALID,0,
2002-03-24, 02:53:00,VALID,915.198,VALID,0,VALID,96.7755,VALID,-0.0169808,VALID,19.0393,VALID,275,VALID,0,
2002-03-24, 02:54:00,VALID,915.194,VALID,0,VALID,96.5313,VALID,-0.0339617,VALID,18.9834,VALID,275,VALID,0,
2002-03-24, 02:55:00,VALID,915.184,VALID,0,VALID,96.4207,VALID,0,VALID,18.9449,VALID,275,VALID,0,
2002-03-24, 02:56:00,VALID,915.183,VALID,0,VALID,96.4601,VALID,0.0339617,VALID,18.925,VALID,275,VALID,0,
2002-03-24, 02:57:00,VALID,915.195,VALID,0,VALID,96.3304,VALID,0.0169808,VALID,18.8999,VALID,293,VALID,0,
2002-03-24, 02:58:00,VALID,915.191,VALID,0,VALID,96.0417,VALID,0.0169808,VALID,18.815,VALID,299,VALID,0,
2002-03-24, 02:59:00,VALID,915.203,VALID,0,VALID,96.1486,VALID,0.0169808,VALID,18.7894,VALID,299,VALID,0.00111607,
2002-03-24, 03:00:00,VALID,915.209,VALID,0,VALID,96.2477,VALID,0,VALID,18.7732,VALID,299,VALID,0.0530428,
2002-03-24, 03:01:00,VALID,915.218,VALID,0,VALID,96.3037,VALID,-0.0169808,VALID,18.7668,VALID,299,VALID,0,
2002-03-24, 03:02:00,VALID,915.234,VALID,0,VALID,96.3749,VALID,-0.0849042,VALID,18.7719,VALID,299,VALID,0,
2002-03-24, 03:03:00,VALID,915.251,VALID,0,VALID,96.4843,VALID,-0.0849042,VALID,18.785,VALID,299,VALID,0,
2002-03-24, 03:04:00,VALID,915.252,VALID,0,VALID,96.5962,VALID,-0.101885,VALID,18.7846,VALID,299,VALID,0,
2002-03-24, 03:05:00,VALID,915.255,VALID,0,VALID,96.6941,VALID,-0.101885,VALID,18.8012,VALID,299,VALID,0,
2002-03-24, 03:06:00,VALID,915.274,VALID,0,VALID,96.6763,VALID,-0.0849042,VALID,18.7977,VALID,299,VALID,0,
2002-03-24, 03:07:00,VALID,915.284,VALID,0,VALID,96.731,VALID,-0.0679233,VALID,18.8141,VALID,299,VALID,0,
2002-03-24, 03:08:00,VALID,915.291,VALID,0,VALID,96.9026,VALID,-0.0679233,VALID,18.8494,VALID,299,VALID,0,
2002-03-24, 03:09:00,VALID,915.308,VALID,0,VALID,97.0717,VALID,-0.101885,VALID,18.9013,VALID,299,VALID,0.0116071,
2002-03-24, 03:10:00,VALID,915.313,VALID,0,VALID,97.1264,VALID,-0.101885,VALID,18.9394,VALID,299,VALID,0.21326,
2002-03-24, 03:11:00,VALID,915.305,VALID,0,VALID,97.1658,VALID,-0.101885,VALID,18.9657,VALID,299,VALID,0.00275735,
2002-03-24, 03:12:00,VALID,915.279,VALID,0,VALID,97.2383,VALID,-0.101885,VALID,19.0141,VALID,293,VALID,0.111698,
2002-03-24, 03:13:00,VALID,915.271,VALID,0,VALID,97.1951,VALID,-0.101885,VALID,19.0462,VALID,293,VALID,0,
2002-03-24, 03:14:00,VALID,915.258,VALID,0,VALID,96.9789,VALID,-0.0849042,VALID,19.0464,VALID,293,VALID,0,
2002-03-24, 03:15:00,VALID,915.25,VALID,0,VALID,96.731,VALID,-0.0849042,VALID,19.0109,VALID,293,VALID,0,
2002-03-24, 03:16:00,VALID,915.236,VALID,0,VALID,96.6508,VALID,-0.101885,VALID,18.995,VALID,293,VALID,0,
2002-03-24, 03:17:00,VALID,915.243,VALID,0,VALID,96.572,VALID,-0.101885,VALID,19.0049,VALID,293,VALID,0,
2002-03-24, 03:18:00,VALID,915.239,VALID,0,VALID,96.5021,VALID,-0.101885,VALID,18.995,VALID,293,VALID,0,
2002-03-24, 03:19:00,VALID,915.23,VALID,0,VALID,96.4016,VALID,-0.101885,VALID,18.9823,VALID,293,VALID,0,
2002-03-24, 03:20:00,VALID,915.231,VALID,0,VALID,96.2541,VALID,-0.101885,VALID,18.9592,VALID,293,VALID,0,
2002-03-24, 03:21:00,VALID,915.231,VALID,0,VALID,96.1015,VALID,-0.101885,VALID,18.9237,VALID,293,VALID,0,
2002-03-24, 03:22:00,VALID,915.222,VALID,0,VALID,95.9616,VALID,-0.0849042,VALID,18.8879,VALID,293,VALID,0,
2002-03-24, 03:23:00,VALID,915.215,VALID,0,VALID,95.8688,VALID,-0.101885,VALID,18.863,VALID,293,VALID,0,
2002-03-24, 03:24:00,VALID,915.201,VALID,0,VALID,95.7569,VALID,-0.0849042,VALID,18.8236,VALID,293,VALID,0,
2002-03-24, 03:25:00,VALID,915.179,VALID,0,VALID,95.8065,VALID,-0.118866,VALID,18.8111,VALID,293,VALID,0,
2002-03-24, 03:26:00,VALID,915.178,VALID,0,VALID,95.6704,VALID,-0.0849042,VALID,18.7917,VALID,293,VALID,0,
2002-03-24, 03:27:00,VALID,915.159,VALID,0,VALID,95.7976,VALID,-0.0849042,VALID,18.7622,VALID,293,VALID,0,
2002-03-24, 03:28:00,VALID,915.154,VALID,0,VALID,96.2007,VALID,-0.0849042,VALID,18.7788,VALID,292,VALID,0,
2002-03-24, 03:29:00,VALID,915.144,VALID,0,VALID,96.5237,VALID,-0.0849042,VALID,18.824,VALID,293,VALID,0,
2002-03-24, 03:30:00,VALID,915.142,VALID,0,VALID,96.6165,VALID,-0.118866,VALID,18.8563,VALID,293,VALID,0,
2002-03-24, 03:31:00,VALID,915.136,VALID,0,VALID,96.5593,VALID,-0.118866,VALID,18.8792,VALID,293,VALID,0,
2002-03-24, 03:32:00,VALID,915.126,VALID,0,VALID,96.5491,VALID,-0.101885,VALID,18.876,VALID,293,VALID,0,
2002-03-24, 03:33:00,VALID,915.127,VALID,0,VALID,96.2999,VALID,-0.101885,VALID,18.8658,VALID,293,VALID,0,
2002-03-24, 03:34:00,VALID,915.131,VALID,0,VALID,96.263,VALID,-0.101885,VALID,18.837,VALID,293,VALID,0,
2002-03-24, 03:35:00,VALID,915.129,VALID,0,VALID,96.3533,VALID,-0.118866,VALID,18.8208,VALID,293,VALID,0,
2002-03-24, 03:36:00,VALID,915.134,VALID,0,VALID,96.6369,VALID,-0.101885,VALID,18.8437,VALID,315,VALID,0,
2002-03-24, 03:37:00,VALID,915.133,VALID,0,VALID,96.5428,VALID,-0.101885,VALID,18.8494,VALID,67,VALID,0.388021,
2002-03-24, 03:38:00,VALID,915.108,VALID,0,VALID,96.4665,VALID,-0.101885,VALID,18.8563,VALID,72,VALID,0.370683,